Location: Caltech
(34.1382°N, 118.1253°W)
Time: 21:46:30
(UTC-07:00)

Daily predictions for brighter satellites

Satellite Brightness Start Highest point End
(mag) Time Altitude Azimuth Time Altitude Azimuth Time Altitude Azimuth
Cosmos 2369 Rocket 2.3 20:17:00 10° S 20:22:29 56° ESE 20:28:02 10° NNE
Cosmos 1470 Rocket 4.1 20:19:24 10° SSW 20:23:50 68° W 20:28:18 10° N
Cosmos 1816 Rocket 4.5 20:17:54 10° S 20:24:00 70° E 20:30:06 10° NNE
GPS 2-04 Rocket1 2.8 20:21:33 10° W 20:25:25 69° N 20:29:05 10° E
Helios 1B rocket 3.6 20:23:47 10° NE 20:27:02 23° E 20:30:16 10° SSE
Resurs 1-3 3.6 20:25:17 10° SSE 20:29:39 74° ENE 20:34:02 10° N
Timation 2 Rocket 4.3 20:25:08 10° NNW 20:31:32 75° WSW 20:38:10 10° SSE
Cosmos 2084 4.3 20:28:35 10° N 20:32:01 30° NE 20:35:33 10° ESE
Lacrosse 4 Rocket 3.8 20:31:44 10° NE 20:32:58 11° NE 20:34:11 10° ENE
Aureole 1 4.1 20:30:31 10° S 20:33:28 65° ESE 20:36:46 10° NNE
DNEPR-1 R/B 4.0 20:30:12 10° SSW 20:35:40 55° ESE 20:40:17 10° NE
Meteor 2-10 Rocket 4.1 20:30:18 10° NNW 20:36:07 72° W 20:41:48 10° S
Spot 2 Rocket 3.5 20:33:12 10° SSE 20:38:18 87° ENE 20:43:27 10° NNW
Aureole 3 4.0 20:36:08 10° SE 20:38:33 21° E 20:40:52 10° NE
ATLAS 5 CENTAUR R/B 3.8 20:36:13 10° N 20:41:05 24° NE 20:46:13 10° E
Cosmos 1408 3.9 20:38:35 10° SE 20:41:29 22° E 20:44:23 10° NE
OAO 2 Rocket 4.4 20:38:10 10° W 20:42:43 33° SSW 20:47:04 11° SE
Cosmos 1869 Rocket 4.0 20:38:50 10° SSE 20:42:53 41° E 20:46:59 10° NNE
Delta 168 4.2 20:43:27 10° SW 20:45:55 19° S 20:48:08 13° SE
ORS 1 (USA 231) 4.4 20:43:19 10° SW 20:46:17 65° SSE 20:49:17 10° ENE
Cosmos 1346 Rocket 2.7 20:43:19 10° N 20:47:18 76° E 20:51:20 10° SSE
Lacrosse 5 rocket 3.0 20:44:08 10° WSW 20:47:23 32° NW 20:50:40 10° NNE
SL-19 R/B 4.5 20:49:54 10° SSE 20:55:32 64° ENE 21:01:36 10° N
COSMOS 2455 3.7 20:52:49 10° SW 20:58:41 55° WNW 21:04:35 10° NNE
Cosmos 372 Rocket 4.0 20:56:49 10° S 21:01:50 57° ESE 21:06:50 10° NNE
Cosmos 1939 Rocket 2.9 20:58:31 10° SSE 21:02:36 78° ENE 21:06:44 10° N
CENTAUR R/B 2.5 20:57:15 10° SSW 21:03:05 87° WNW 21:09:44 10° NNE
Helios 1A 3.1 21:01:58 15° SSE 21:05:15 60° ENE 21:09:25 10° N
Envisat 3.2 21:00:25 10° S 21:05:28 74° WSW 21:10:34 10° NNW
Cosmos 1825 2.5 21:02:49 14° SSE 21:05:47 43° E 21:09:23 10° NNE
Cosmos 2221 Rocket 3.6 21:07:55 10° N 21:12:19 61° E 21:15:21 20° SSE
USA 186 3.9 21:11:43 10° SSW 21:13:49 21° W 21:16:04 10° NW
SJ-11-01 4.4 21:13:49 11° S 21:18:20 75° WSW 21:23:03 10° NNW
Cosmos 1125 Rocket 3.7 21:17:03 10° SSW 21:22:16 73° WNW 21:27:31 10° NNE
Cosmos 1269 Rocket 4.3 21:20:46 10° N 21:25:55 50° ENE 21:28:18 29° SE
Cosmos 1782 2.7 21:24:45 10° N 21:28:45 78° E 21:30:32 31° SSE
deb Kosmos-1763 4.2 21:29:29 10° N 21:33:13 61° ENE 21:34:03 46° SE
Milstar 3 3.7 21:23:17 10° WSW 21:36:17 57° S 21:41:17 24° ESE
Cosmos 1943 Rocket 2.8 21:31:01 10° SW 21:36:32 58° WNW 21:42:01 10° NNE
SAR-Lupe-4 3.4 21:36:04 43° SSE 21:37:08 89° WSW 21:40:44 10° NNW
Resurs 01 Rocket 4.3 21:38:17 10° SW 21:40:41 14° W 21:43:07 10° WNW
Nadezhda 4 Rocket 4.1 21:38:05 28° SSE 21:41:09 51° E 21:47:06 10° NNE
Cosmos 1340 2.5 21:39:46 10° N 21:43:34 72° E 21:44:07 59° SE
Okean 1-7 3.6 21:39:45 10° NNW 21:44:04 55° W 21:46:45 21° SSW
Cosmos 158 Rocket 3.7 21:40:40 10° NNW 21:45:33 89° WSW 21:47:24 39° SSE
CZ-4B DEB 3.6 21:45:27 36° SW 21:45:56 40° W 21:48:43 10° NNW
Cosmos 1862 3.1 21:45:15 43° S 21:46:30 85° E 21:50:28 10° N
OAO 3 Copernicus 4.3 21:42:33 10° W 21:47:36 82° N 21:50:00 31° E
YAOGAN 6 4.0 21:46:14 19° SSW 21:48:20 35° W 21:51:44 10° NNW
Tiangong 2 3.1 21:49:47 10° W 21:51:52 21° SW 21:51:52 21° SW
Delta 7925 Rocket 4.2 21:51:09 10° WSW 21:55:06 34° S 21:55:06 34° S
NOAA 11 4.2 21:53:21 32° S 21:56:00 78° WSW 22:01:31 10° NNW
Terra 3.5 21:59:48 20° ENE 21:59:48 20° ENE 22:02:59 10° NNE
Cosmos 1867 4.5 21:55:50 10° N 22:00:45 34° NE 22:01:48 31° ENE
H-2A R/B 2.4 22:01:15 45° ESE 22:02:11 51° ENE 22:07:20 10° N
GPS 2-04 Rocket1 3.2 22:01:29 10° W 22:04:20 45° WSW 22:04:20 45° WSW
Cosmos 1606 4.1 22:02:16 10° NNW 22:05:42 34° W 22:06:53 27° SW
ERS-1 Rocket 3.3 22:03:44 35° SSW 22:05:44 60° WSW 22:10:44 10° NNW
Cosmos 2279 Rocket 4.5 22:01:45 10° NNW 22:07:51 58° W 22:11:42 23° SSW
Intercosmos 25 Rocket 3.8 22:02:40 10° N 22:08:40 59° E 22:08:50 59° E
BREEZE-M DEB (TANK) 4.3 22:13:27 28° ENE 22:13:27 28° ENE 22:18:00 10° NE
Cosmos 1733 Rocket 3.3 22:10:29 49° SW 22:11:26 65° W 22:15:44 10° N
Lacrosse 4 Rocket 1.5 22:07:43 10° NNW 22:12:11 70° WSW 22:12:26 68° SW
ATLAS CENTAUR R/B 2.2 22:17:27 41° NNE 22:17:27 41° NNE 22:20:05 10° NNE
MetOp-B 4.5 22:16:33 40° SSW 22:18:17 59° W 22:23:35 10° NNW
Cosmos 1833 4.3 22:16:31 10° NNW 22:22:15 69° WSW 22:23:27 53° SSW
SPOT 5 3.2 22:24:48 58° SSW 22:25:45 72° WSW 22:31:04 10° NNW
ATLAS 5 CENTAUR R/B 2.7 22:20:03 10° NW 22:26:09 61° WSW 22:27:46 47° SSW
Nimbus 7 Rocket 4.3 22:22:46 10° NNE 22:28:40 83° WNW 22:30:29 47° SSW
Cosmos 2297 Rocket 4.3 22:27:11 10° NNE 22:29:33 13° NE 22:30:09 12° ENE
USA 215 3.4 22:28:10 48° E 22:29:54 65° NE 22:36:24 10° NW
Cosmos 2195 Rocket 4.5 22:30:00 60° ESE 22:30:25 62° E 22:36:40 10° NNE
Sich 1 Rocket 4.3 22:33:32 48° NNE 22:33:32 48° NNE 22:36:46 10° N
ARGOS 3.7 22:33:10 42° SW 22:34:21 50° W 22:39:34 10° NNW
Meteor 2-20 Rocket 4.4 22:40:52 66° SSW 22:41:49 84° W 22:47:58 10° N
Cosmos 1655 Rocket 4.1 22:55:58 61° ENE 22:55:58 61° ENE 23:01:29 10° NNE
Cosmos 2251 Rocket 3.7 22:50:54 10° NNW 22:55:26 66° NW 22:55:26 66° NW
Cosmos 2026 Rocket 3.8 22:59:36 87° W 22:59:36 87° W 23:05:53 10° N
SPOT 1/Viking Rocket 4.4 23:00:50 43° W 23:00:50 43° W 23:05:43 10° NNW
H-2A R/B 3.9 23:04:49 25° N 23:04:49 25° N 23:06:42 10° N
Meteor 1-20 Rocket 4.5 23:04:54 65° NNE 23:04:54 65° NNE 23:09:44 10° N
Cosmos 2227 Rocket 3.3 23:14:46 10° N 23:18:54 37° NE 23:18:54 37° NE
GEOS 3 Rocket 4.4 23:28:05 48° NNW 23:28:05 48° NNW 23:31:52 10° NNW
Cosmos 2219 4.0 23:23:24 10° NNW 23:27:54 46° WNW 23:27:54 46° WNW
S3M 4.3 23:24:04 10° N 23:29:00 58° NNE 23:29:00 58° NNE
Terra 3.6 23:38:41 27° WNW 23:38:41 27° WNW 23:41:22 10° NNW
Cosmos 1980 Rocket 4.5 23:43:36 14° NE 23:43:36 14° NE 23:44:27 10° NE
H-2A R/B 4.3 23:41:54 17° W 23:41:54 17° W 23:45:10 10° NW
Cosmos 1553 Rocket 4.4 23:40:56 10° N 23:46:06 59° NW 23:46:06 59° NW
